Location: Piotrkow Trybunalski
(51.4000°N, 19.6830°E)
Time: 17:39:54
(UTC+01:00)

Tiros 1 despin weight - All Passes

Search period start: 29 January 2023 00:00
Search period end: 08 February 2023 00:00
Orbit: 589 x 636 km, 48.2° (Epoch: 28 January)

Date Brightness Start Highest point End Pass type
(mag) Time Alt. Az. Time Alt. Az. Time Alt. Az.
29 Jan - 16:44:40 10° SE 16:45:19 10° SE 16:45:58 10° SE daylight
29 Jan - 18:21:46 10° SW 18:25:47 32° SSE 18:29:46 10° E visible
29 Jan - 20:02:23 10° WSW 20:06:48 56° S 20:11:09 10° E visible
29 Jan - 21:43:39 10° W 21:47:56 47° SSW 21:52:10 10° ESE night (unlit)
29 Jan - 23:25:27 10° W 23:28:43 20° SSW 23:31:55 10° SSE night (unlit)
30 Jan - 16:56:44 10° S 16:59:40 17° SE 17:02:35 10° ESE visible
30 Jan - 18:36:06 10° SW 18:40:22 42° SSE 18:44:36 10° E visible
30 Jan - 20:17:04 10° W 20:21:29 58° S 20:25:51 10° ESE visible
30 Jan - 21:58:27 10° W 22:02:33 36° SSW 22:06:36 10° SE night (unlit)
30 Jan - 23:41:07 10° WSW 23:43:05 13° SW 23:45:02 10° SSW night (unlit)
31 Jan - 17:10:22 10° SSW 17:14:06 25° SSE 17:17:49 10° E visible
31 Jan - 18:50:37 10° WSW 18:55:01 52° S 18:59:21 10° E visible
31 Jan - 20:31:48 10° W 20:36:10 53° S 20:40:28 10° ESE visible
31 Jan - 22:13:21 10° W 22:17:04 26° SSW 22:20:45 10° SSE night (unlit)
01 Feb - 15:46:13 10° SSE 15:48:05 12° SE 15:49:57 10° ESE daylight
01 Feb - 17:24:29 10° SW 17:28:38 35° SSE 17:32:44 10° E visible
01 Feb - 19:05:15 10° WSW 19:09:41 57° S 19:14:04 10° E visible
01 Feb - 20:46:33 10° W 20:50:49 44° SSW 20:55:01 10° SE visible
01 Feb - 22:28:31 10° WSW 22:31:31 18° SW 22:34:29 10° S night (unlit)
02 Feb - 15:59:10 10° SSW 16:02:27 20° SE 16:05:42 10° E daylight
02 Feb - 17:38:53 10° WSW 17:43:13 46° SSE 17:47:31 10° E visible
02 Feb - 19:19:56 10° W 19:24:22 57° S 19:28:44 10° ESE visible
02 Feb - 21:01:21 10° W 21:05:23 33° SSW 21:09:22 10° SE visible
02 Feb - 22:44:42 10° WSW 22:45:50 11° SW 22:46:59 10° SSW night (unlit)
03 Feb - 16:12:59 10° SSW 16:16:54 28° SSE 16:20:47 10° E daylight
03 Feb - 17:53:25 10° WSW 17:57:52 54° S 18:02:15 10° E visible
03 Feb - 19:34:39 10° W 19:39:01 51° SSW 19:43:20 10° ESE visible
03 Feb - 21:16:18 10° W 21:19:52 24° SSW 21:23:24 10° SSE visible
04 Feb - 14:48:19 10° S 14:50:49 15° SE 14:53:18 10° ESE daylight
04 Feb - 16:27:11 10° SW 16:31:26 39° SSE 16:35:38 10° E daylight
04 Feb - 18:08:03 10° WSW 18:12:32 58° S 18:16:56 10° E visible
04 Feb - 19:49:24 10° W 19:53:38 41° SSW 19:57:48 10° SE visible
04 Feb - 21:31:36 10° WSW 21:34:16 16° SW 21:36:54 10° S visible
05 Feb - 15:01:39 10° SSW 15:05:11 22° SSE 15:08:43 10° E daylight
05 Feb - 16:41:37 10° WSW 16:46:02 49° SSE 16:50:24 10° E daylight
05 Feb - 18:22:44 10° W 18:27:12 56° S 18:31:34 10° ESE visible
05 Feb - 20:04:13 10° W 20:08:10 30° SSW 20:12:04 10° SE visible
06 Feb - 13:38:51 10° SE 13:39:12 10° SE 13:39:34 10° SE daylight
06 Feb - 15:15:35 10° SW 15:19:39 32° SSE 15:23:42 10° E daylight
06 Feb - 16:56:11 10° WSW 17:00:40 56° S 17:05:06 10° E daylight
06 Feb - 18:37:27 10° W 18:41:49 48° SSW 18:46:07 10° ESE visible
06 Feb - 20:19:13 10° W 20:22:36 21° SSW 20:25:58 10° SSE visible
07 Feb - 13:50:34 10° S 13:53:30 17° SE 13:56:26 10° ESE daylight
07 Feb - 15:29:51 10° SW 15:34:11 42° SSE 15:38:29 10° E daylight
07 Feb - 17:10:49 10° W 17:15:19 58° S 17:19:45 10° ESE visible
07 Feb - 18:52:12 10° W 18:56:23 38° SSW 19:00:32 10° SE visible
07 Feb - 20:34:43 10° WSW 20:36:57 14° SW 20:39:10 10° S visible
